Weather History for CYUA - April, 2013

Change the Weather History Date:

Tuesday, April 16, 2013

  Actual Average Record
Temperature  
Mean Temperature -8 °F -  
Max Temperature 2 °F 12 °F 42 °F (1998)
Min Temperature -17 °F -1 °F -18 °F (2005)
Degree Days  
Heating Degree Days 72    
Moisture  
Dew Point -    
Average Humidity    
Maximum Humidity    
Minimum Humidity    
Precipitation  
Precipitation 0.00 in - - ()
Sea Level Pressure  
Sea Level Pressure 30.80 in    
Wind  
Wind Speed 3 mph ()    
Max Wind Speed 7 mph    
Max Gust Speed -    
Visibility 8.9 miles    
Events Snow    
Averages and records for this station are not official NWS values.
T = Trace of Precipitation, MM = Missing Value Source: Averaged Metar Reports

Daily Weather History Graph

Daily Weather History Graph

Search for Another Location

Airport or City:

Trip Planner

Search our weather history database for the weather conditions in past years. The results will help you decide how hot, cold, wet, or windy it might be!

Date:

Astronomy

Apr. 16, 2013 Rise Set
Actual Time 6:05 AM PDT 10:14 PM PDT
Civil Twilight 4:48 AM PDT 11:33 PM PDT
Nautical Twilight 2:41 AM PDT 1:35 AM PDT
Astronomical Twilight Sun does not set Sun does not set
Moon 8:36 AM PDT (4/16) 5:12 AM PDT (4/16)
Length of Visible Light 18h 45m
Length of Day
16h 09m
Waxing Crescent, 34% of the Moon is Illuminated
Apr 16
Waxing Crescent
Apr 18
First Quarter
Apr 25
Full
May 2
Last Quarter
May 9
New

Hourly Weather History & Observations

Time (PDT) Temp. Windchill Dew Point Humidity Pressure Visibility Wind Dir Wind Speed Gust Speed Precip Events Conditions
12:00 AM -7.6 °F -16.5 °F - N/A% 30.90 in 9.0 mi West 3.5 mph - N/A   Unknown
12:39 AM -9.4 °F - - N/A% 30.86 in 9.0 mi WSW 2.3 mph - N/A   Unknown
1:00 AM -9.4 °F -20.9 °F - N/A% 30.89 in 9.0 mi SW 4.6 mph - N/A   Unknown
2:00 AM -9 °F - - % 30.87 in 9 mi SW 4.6 mph - -  
2:00 AM -9.4 °F -20.9 °F - N/A% 30.87 in 9.0 mi SW 4.6 mph - N/A   Unknown
2:13 AM -9.4 °F -22.7 °F - N/A% 30.84 in 9.0 mi SSW 5.8 mph - N/A   Unknown
3:00 AM -11.2 °F -24.8 °F - N/A% 30.87 in 9.0 mi SW 5.8 mph - N/A   Unknown
3:06 AM -11.2 °F -23.0 °F - N/A% 30.84 in 6.0 mi SW 4.6 mph - N/A   Unknown
3:18 AM -9.4 °F -18.6 °F - N/A% 30.84 in 8.0 mi WSW 3.5 mph - N/A Snow Light Snow
3:19 AM -9.4 °F -18.6 °F - N/A% 30.84 in 8.0 mi SW 3.5 mph - N/A   Unknown
3:23 AM -11.2 °F -20.6 °F - N/A% 30.83 in 9.0 mi WSW 3.5 mph - N/A Snow Light Snow
3:24 AM -13.0 °F -22.7 °F - N/A% 30.83 in 9.0 mi WSW 3.5 mph - N/A   Unknown
3:25 AM -13.0 °F -22.7 °F - N/A% 30.83 in 9.0 mi West 3.5 mph - N/A Snow Light Snow
3:42 AM -13.0 °F -25.1 °F - N/A% 30.83 in 9.0 mi SW 4.6 mph - N/A   Unknown
4:00 AM -11.2 °F -23.0 °F - N/A% 30.86 in 9.0 mi SW 4.6 mph - N/A   Unknown
5:00 AM -17 °F - - % 30.84 in 9 mi WSW 3.5 mph - -  
5:00 AM -16.6 °F -26.8 °F - N/A% 30.84 in 9.0 mi SW 3.5 mph - N/A   Unknown
6:00 AM -14.8 °F -27.2 °F - N/A% 30.84 in 9.0 mi SSW 4.6 mph - N/A   Unknown
6:26 AM -13.0 °F -28.6 °F - N/A% 30.79 in 9.0 mi SSW 6.9 mph - N/A   Unknown
7:00 AM -16.6 °F -32.9 °F - N/A% 30.82 in 9.0 mi SSW 6.9 mph - N/A   Unknown
7:16 AM -16.6 °F -31.3 °F - N/A% 30.78 in 9.0 mi SW 5.8 mph - N/A   Unknown
8:00 AM -16 °F - - % 30.82 in 9 mi SSW 6.9 mph - -  
8:00 AM -16.6 °F -32.9 °F - N/A% 30.82 in 9.0 mi SSW 6.9 mph - N/A   Unknown
9:00 AM -14.8 °F -27.2 °F - N/A% 30.80 in 9.0 mi SW 4.6 mph - N/A   Unknown
10:00 AM -11.2 °F - - N/A% 30.80 in 9.0 mi Calm Calm - N/A   Unknown
11:00 AM -10 °F - - % 30.78 in 9 mi Calm Calm - -  
11:00 AM -9.4 °F - - N/A% 30.78 in 9.0 mi Calm Calm - N/A   Unknown
12:00 PM -9.4 °F -20.9 °F - N/A% 30.78 in 9.0 mi SSW 4.6 mph - N/A   Unknown
1:00 PM -4.0 °F - - N/A% 30.77 in 9.0 mi South 2.3 mph - N/A   Unknown
2:00 PM -3 °F - - % 30.77 in 9 mi NE 2.3 mph - -  
2:00 PM -2.2 °F - - N/A% 30.77 in 9.0 mi NE 2.3 mph - N/A   Unknown
3:00 PM -2.2 °F - - N/A% 30.76 in 9.0 mi ENE 2.3 mph - N/A   Unknown
4:00 PM -0.4 °F - - N/A% 30.75 in 9.0 mi SSE 2.3 mph - N/A   Unknown
5:00 PM 2 °F - - % 30.74 in 9 mi Calm Calm - -  
5:00 PM 1.4 °F - - N/A% 30.74 in 9.0 mi Calm Calm - N/A   Unknown
6:00 PM -2.2 °F -12.5 °F - N/A% 30.73 in 9.0 mi NE 4.6 mph - N/A   Unknown
7:00 PM -2.2 °F -10.4 °F - N/A% 30.73 in 9.0 mi East 3.5 mph - N/A   Unknown
8:00 PM -3 °F - - % 30.72 in 9 mi NE 3.5 mph - -  
8:00 PM -4.0 °F -12.4 °F - N/A% 30.72 in 9.0 mi NE 3.5 mph - N/A   Unknown
9:00 PM -4.0 °F -12.4 °F - N/A% 30.71 in 9.0 mi NE 3.5 mph - N/A   Unknown
10:00 PM -4.0 °F - - N/A% 30.72 in 9.0 mi ENE 2.3 mph - N/A   Unknown
11:00 PM -5 °F - - % 30.71 in 9 mi Calm Calm - -  
11:00 PM -4.0 °F - - N/A% 30.71 in 9.0 mi Calm Calm - N/A   Unknown
11:54 PM -5.8 °F - - N/A% 30.68 in 9.0 mi NNE 2.3 mph - N/A   Unknown